Theta_e
309 309 308 309 305 306 304 304 301 298 299 302 292 291 291 294 293 293 294 295 299 303 305 307 306 304 302 300 299 299 299 298 297 299 298 299 299 299
309 308 307 307 307 305 304 303 301 300 297 301 296 293 290 290 290 291 291 293 295 298 302 304 303 300 299 299 298 298 297 296 298 298 299 298 298 298
308 306 305 306 305 305 303 302 301 299 296 300 296 291 288 288 288 289 290 290 290 294 297 301 299 297 298 298 297 296 294 296 297 296 297 296 296 295
305 305 304 303 302 304 303 301 299 299 297 295 298 286 286 286 287 286 287 288 288 290 294 297 296 296 296 296 295 293 293 294 294 294 293 293 292 293
303 302 302 302 299 300 300 299 298 298 297 295 295 284 284 284 283 284 284 285 286 288 292 294 294 294 294 294 293 292 292 292 291 290 289 289 290 291
301 301 301 298 299 298 296 296 295 294 293 292 292 284 282 283 283 282 281 283 283 285 288 289 291 292 293 293 291 291 289 289 288 288 288 288 288 286
296 296 297 296 293 296 294 294 292 291 291 289 289 282 281 280 280 282 281 281 282 284 285 285 286 286 288 289 287 287 288 288 288 288 287 284 283 282
291 292 291 288 290 292 294 295 293 290 288 288 288 285 283 281 282 281 280 279 277 282 282 281 285 284 284 285 286 287 288 288 287 284 282 281 280 280
289 289 288 288 287 288 290 292 292 293 294 288 286 284 282 282 282 281 281 281 280 281 282 280 283 282 284 284 287 288 287 285 283 281 279 278 278 278
288 288 287 287 287 285 286 286 286 286 286 286 285 285 285 284 284 283 283 282 281 282 282 279 281 280 282 282 286 285 284 282 280 278 277 277 277 277
286 286 285 285 286 287 285 284 284 284 286 287 287 287 287 287 285 283 281 281 278 279 281 279 277 276 276 276 278 284 281 279 276 275 275 275 275 275
284 283 283 285 286 287 285 284 282 283 284 284 285 286 286 286 286 285 283 281 279 278 280 277 276 275 272 273 274 275 274 275 273 273 273 273 274 273
282 282 283 285 287 287 286 284 284 285 285 284 283 283 283 283 283 283 284 283 280 278 279 277 275 274 274 271 272 272 271 270 269 269 270 270 272 273
281 282 283 286 287 286 285 287 287 284 283 283 282 281 281 281 280 279 279 278 279 279 281 277 275 274 273 270 270 270 269 269 269 267 268 268 269 270
282 283 284 287 287 286 287 287 284 283 282 281 280 279 279 279 277 275 275 274 273 274 274 275 275 273 273 271 269 267 268 268 268 267 267 267 267 267
284 285 286 286 286 284 283 284 283 283 282 281 280 278 278 277 275 275 273 272 270 269 271 272 271 271 269 268 268 266 267 266 266 266 266 266 266 267
284 284 283 282 282 281 280 280 280 281 280 279 278 276 276 275 273 273 272 271 270 268 267 267 268 267 267 267 266 265 265 265 265 265 265 264 265 266
282 281 280 280 279 279 276 275 275 275 275 276 275 275 274 273 272 271 270 270 269 268 266 266 266 266 266 264 266 264 264 263 264 264 264 262 263 265
278 277 276 276 275 274 273 273 271 271 272 272 272 272 271 270 269 269 268 267 266 266 265 265 264 264 262 262 264 266 264 263 263 263 263 263 262 264
274 273 272 271 271 270 270 269 269 268 268 269 268 268 268 267 267 266 266 264 264 263 262 262 263 262 262 262 261 263 266 264 263 262 262 264 264 267
268 267 267 267 266 266 266 266 266 265 265 264 264 264 263 265 262 263 263 261 260 261 261 261 262 262 261 260 259 260 262 264 265 263 263 262 261 261
265 264 263 263 263 264 263 263 262 262 262 262 260 261 261 263 261 260 260 260 259 260 259 260 260 260 260 260 258 257 259 261 262 263 265 265 262 259
263 262 260 259 259 259 260 260 260 260 259 258 258 257 256 257 256 258 257 256 256 256 257 258 259 259 258 258 256 257 256 257 258 259 261 265 266 267
Wind_Speed
11 12 11 9 9 10 9 9 10 14 15 8 5 9 8 8 12 11 13 19 27 30 28 26 26 24 22 20 19 21 19 14 13 17 13 16 15 15
9 12 12 9 10 8 10 9 9 12 18 2 5 5 6 6 8 10 11 15 22 27 28 24 21 20 21 20 20 18 14 13 18 15 15 15 14 14
10 11 13 12 9 9 8 9 10 10 14 12 5 3 5 7 6 8 8 9 8 20 25 21 16 19 19 19 16 14 11 17 16 12 12 12 12 12
13 13 13 8 12 12 9 12 11 11 11 18 10 4 7 5 5 6 5 5 5 11 20 23 19 20 17 14 15 13 13 13 9 8 9 10 11 15
12 12 13 12 11 10 10 10 8 9 10 10 11 1 2 1 2 2 3 3 3 10 17 21 18 18 16 16 14 9 12 8 5 3 6 9 12 16
12 12 12 11 13 11 10 11 10 8 8 9 9 3 3 3 3 3 4 2 3 4 8 8 11 13 15 15 10 10 4 4 2 3 8 10 6 6
10 11 11 11 13 13 7 8 8 8 8 7 8 3 4 4 6 4 5 4 2 1 2 2 3 4 4 6 5 8 7 5 6 8 2 3 3 6
10 9 8 8 10 14 15 15 11 9 10 8 8 7 5 3 4 4 3 4 3 4 4 3 4 5 4 3 7 10 10 9 4 9 6 3 4 6
8 8 7 5 7 7 10 14 14 16 17 5 8 5 4 6 6 8 6 4 2 6 7 6 3 3 4 5 12 11 6 11 10 7 2 2 5 6
9 8 7 7 6 5 6 7 6 3 1 1 4 3 3 5 6 4 8 8 5 4 2 3 3 2 4 3 7 8 13 11 8 4 2 3 5 6
6 6 6 6 8 10 5 5 3 1 4 6 6 7 8 14 12 9 7 7 3 1 1 3 2 3 3 2 1 11 12 8 5 3 3 3 6 8
4 4 7 7 9 8 4 4 4 2 3 3 5 9 9 11 11 4 6 5 3 2 2 3 3 3 3 1 2 5 4 5 3 4 5 5 7 5
4 3 3 7 6 4 4 4 4 5 8 6 5 6 7 6 5 6 6 4 3 3 3 3 3 3 3 3 1 2 2 1 1 2 4 5 7 7
3 2 3 5 5 7 5 9 15 9 4 6 6 5 6 5 6 7 8 8 7 5 6 3 3 2 3 2 2 2 1 1 1 1 2 4 7 8
2 3 5 6 10 6 12 16 10 5 5 5 5 4 4 5 7 7 9 10 11 10 8 5 4 4 2 2 3 2 2 2 2 1 1 4 4 5
1 2 6 9 10 10 8 8 5 5 5 5 5 5 4 3 4 4 4 3 4 5 10 11 8 5 2 2 1 2 2 2 0 2 3 4 5 6
3 4 5 4 6 6 7 7 5 4 4 3 4 4 4 4 3 3 3 2 3 3 3 5 7 6 4 3 1 0 1 2 2 3 3 5 6 6
3 5 5 5 5 5 6 6 5 5 4 3 3 3 4 4 4 3 3 3 3 3 4 2 1 1 2 2 1 1 1 1 1 3 4 5 6 5
3 4 4 5 5 5 4 4 3 3 3 4 4 4 5 5 4 4 4 4 3 3 3 2 2 2 1 1 1 2 1 1 3 4 5 5 8 9
3 4 5 4 4 5 4 4 5 5 5 5 4 3 3 3 3 3 3 3 3 2 2 1 2 2 2 1 1 1 3 4 4 6 6 6 8 15
4 5 4 4 4 5 4 5 5 5 3 3 3 3 3 3 4 3 4 4 4 2 2 2 2 3 3 1 1 1 2 6 7 6 7 8 6 3
5 6 4 4 4 4 4 5 5 4 4 3 3 3 3 3 4 3 2 2 1 2 2 3 3 2 1 1 1 3 5 5 9 10 11 10 4 4
5 5 5 4 4 4 4 4 4 4 3 3 3 3 2 3 2 3 3 3 4 3 2 2 2 1 1 0 1 2 4 6 5 6 4 5 9 14
Wind_Direction
230 232 233 236 226 230 229 227 244 281 274 250 228 218 226 228 232 226 228 237 238 237 233 232 214 216 213 217 222 234 239 238 249 254 263 269 277 289
236 234 232 235 236 221 226 227 226 248 276 235 228 210 206 220 227 225 231 234 237 239 240 231 210 208 211 214 222 229 230 243 251 258 261 276 288 292
241 238 239 237 233 230 219 225 230 230 255 269 275 197 203 214 214 215 221 223 233 236 241 232 197 210 216 217 216 213 223 246 258 270 283 291 301 307
255 256 248 236 233 238 232 230 226 224 240 264 262 203 212 213 219 207 214 221 222 227 233 237 205 206 212 209 201 206 236 253 267 280 293 298 301 297
251 249 256 251 244 240 235 239 232 233 234 252 268 123 187 170 155 183 190 187 179 198 223 228 206 203 202 203 197 214 237 257 241 267 287 288 293 289
267 260 255 242 248 242 236 237 239 234 233 239 250 200 177 181 184 175 184 174 171 181 207 188 194 209 204 198 187 219 149 196 251 270 280 289 297 312
264 257 257 256 247 246 238 240 232 235 239 236 242 193 185 180 196 176 190 152 90 111 150 144 149 157 168 176 152 161 184 217 238 260 87 95 36 345
273 265 255 259 261 257 256 251 235 229 235 231 240 232 217 184 153 163 138 151 169 172 142 136 146 138 130 158 184 198 224 232 167 119 106 67 343 327
266 269 269 252 257 265 270 269 266 251 237 218 237 208 185 180 161 154 169 157 157 154 138 145 154 177 179 203 217 225 197 131 123 114 82 349 333 321
253 253 253 261 252 254 262 266 263 242 134 162 197 177 183 162 162 139 136 109 75 120 78 119 130 135 127 111 157 149 141 133 127 117 44 343 324 310
264 261 256 256 257 263 235 244 197 117 125 150 150 155 161 147 133 129 129 132 123 151 173 96 120 93 51 82 113 154 137 137 118 69 17 340 319 312
273 282 287 274 281 272 234 173 145 113 109 99 103 113 121 127 115 104 135 137 107 123 169 100 123 129 125 14 63 80 100 110 54 29 2 341 320 301
271 281 275 290 290 287 143 137 129 133 112 93 82 90 89 84 85 90 93 120 124 97 156 113 133 141 81 131 171 162 163 161 41 24 1 325 319 326
273 263 277 294 138 109 115 136 123 100 92 97 93 94 98 91 77 76 76 68 47 69 127 88 112 134 122 128 166 146 191 225 278 229 302 321 331 323
253 241 220 126 105 103 114 108 92 94 99 92 91 82 78 103 101 80 74 76 67 56 51 48 94 109 96 119 139 161 211 214 241 281 305 313 310 312
156 170 119 98 89 88 86 90 95 108 118 126 117 108 109 100 98 95 102 102 83 70 50 50 56 63 98 85 124 164 220 285 158 300 311 301 303 294
93 98 95 90 92 86 73 66 66 76 87 83 102 103 107 112 91 73 89 88 88 112 88 55 56 60 58 118 142 184 248 272 316 320 309 303 294 290
72 103 96 89 95 100 96 87 64 62 58 86 91 98 110 99 96 77 76 80 94 118 118 123 147 107 79 96 165 184 238 291 319 303 300 295 292 294
97 94 98 96 98 91 88 83 98 76 69 75 82 85 93 96 118 111 109 106 102 105 102 127 111 92 83 278 59 270 281 276 308 303 298 286 292 299
69 88 90 81 75 83 85 92 89 76 71 76 80 81 96 106 101 108 110 121 131 120 107 72 91 133 174 231 242 207 313 293 302 305 303 297 289 293
98 88 84 90 88 94 96 84 79 76 85 100 85 86 87 105 102 109 101 88 107 95 119 130 84 80 92 109 238 273 291 304 304 300 299 302 306 303
111 109 101 90 88 87 85 90 95 97 96 96 93 91 82 85 103 115 111 123 94 109 99 102 101 121 162 229 288 291 294 314 310 301 290 269 263 294
120 118 108 96 91 95 104 111 107 112 109 106 106 93 81 94 95 87 105 93 123 119 118 151 159 95 97 281 267 300 302 307 321 330 318 326 321 303